Flag for Norway Weather past 2 weeks in Stange, Norway

Now
37 °F

Chilly.


Feels Like: 35 °F
Forecast: 33 / 55 °F
Wind: 3 mph from South

Location: Haugedalshogda

Current Time: May 23, 2015 at 5:07:09 AM

Latest Report: May 23, 2015 at 4:00 AM


Visibility: N/A

Pressure: 29.70 "Hg

Humidity: 67%

Dew point: 27 °F

Location of StangeLocation

Historic Weather in Stange — Graph

°F

Stange temperature yesterday

Maximum temperature yesterday: 52 °F (at 4:00 PM)
Minimum temperature yesterday: 36 °F (at 11:00 PM)
Average temperature yesterday: 47 °F

Past Weeks' High & Low Weather Summary

 TemperatureHumidityPressure
High60 °F (May 21, 3:00 PM)96% (May 13, 4:00 AM)30.17 "Hg (May 13, 4:00 AM)
Low22 °F (May 16, 4:00 AM)17% (May 9, 4:00 PM)29.50 "Hg (May 12, 8:00 PM)
Average44 °F70%29.82 "Hg
* Reported May 8 3:00 AM — May 23 3:00 AM, Stange, Weather by CustomWeather, © 2015

Note: Actual official high and low records may vary slightly from our data, if they occured in-between our weather recording intervals... More about our weather records

Advertising

Stange weather history for previous 24 hours

 ConditionsComfort  
Time TempWeatherWind HumidityBarometerVisibility
3:00 AM
Sat, May 23
35 °FChilly.1 mph72%29.71 "HgN/A
2:00 AM37 °FChilly.2 mph64%29.70 "HgN/A
1:00 AM41 °FQuite cool.5 mph53%29.68 "HgN/A
12:00 AM42 °FQuite cool.5 mph55%29.66 "HgN/A
11:00 PM
Fri, May 22
36 °FChilly.1 mph89%29.67 "HgN/A
10:00 PM43 °FQuite cool.2 mph73%29.66 "HgN/A
9:00 PM50 °FCool.2 mph62%29.64 "HgN/A
8:00 PM49 °FCool.5 mph76%29.65 "HgN/A
7:00 PM50 °FCool.5 mph80%29.66 "HgN/A
6:00 PM50 °FCool.5 mph83%29.69 "HgN/A
5:00 PM49 °FCool.6 mph84%29.71 "HgN/A
4:00 PM52 °FCool.8 mph70%29.71 "HgN/A
3:00 PM52 °FCool.9 mph71%29.75 "HgN/A
2:00 PM52 °FCool.8 mph68%29.78 "HgN/A
1:00 PM51 °FCool.8 mph71%29.81 "HgN/A
12:00 PM50 °FCool.9 mph71%29.83 "HgN/A
11:00 AM50 °FCool.7 mph70%29.85 "HgN/A
10:00 AM49 °FCool.8 mph72%29.86 "HgN/A
9:00 AM48 °FCool.6 mph75%29.86 "HgN/A
8:00 AM47 °FCool.6 mph79%29.87 "HgN/A
7:00 AM46 °FCool.5 mph81%29.89 "HgN/A
6:00 AM45 °FCool.8 mph81%29.90 "HgN/A
5:00 AM44 °FQuite cool.3 mph86%29.93 "HgN/A
Weather by CustomWeather, © 2015

See weather overviewHow to use our weather pages